Carrington, ND

3:54 AM CST on February 06, 2016 (GMT -0600)
Carrington Municipal Airport

Weather History for K46D - February, 2014

Change the Weather History Date:

Friday, February 14, 2014

  Actual Average (KJMS) Record (KJMS)
Temperature  
Mean Temperature 4 °F 15 °F  
Max Temperature 15 °F 24 °F 48 °F (1921)
Min Temperature -7 °F 5 °F -37 °F (1936)
Degree Days  
Heating Degree Days 61 50  
Month to date heating degree days 731  
Since 1 July heating degree days 6093  
Cooling Degree Days 0 0  
Month to date cooling degree days 0  
Year to date cooling degree days 0  
Moisture  
Dew Point -1 °F    
Average Humidity 80    
Maximum Humidity 93    
Minimum Humidity 67    
Precipitation  
Precipitation 0.00 in 0.01 in 0.15 in (1979)
Month to date precipitation 0.15  
Year to date precipitation 0.60  
Sea Level Pressure  
Sea Level Pressure 29.92 in    
Wind  
Wind Speed 9 mph (WSW)    
Max Wind Speed 17 mph    
Max Gust Speed -    
Visibility 10 miles    
Events      
T = Trace of Precipitation, MM = Missing Value Source: NWS Daily Summary

Daily Weather History Graph

Daily Weather History Graph

Search for Another Location

Airport or City:

Trip Planner

Search our weather history database for the weather conditions in past years. The results will help you decide how hot, cold, wet, or windy it might be!

Date:

Astronomy

Feb. 14, 2014 Rise Set
Actual Time 7:43 AM CST 5:58 PM CST
Civil Twilight 7:11 AM CST 6:30 PM CST
Nautical Twilight 6:35 AM CST 7:06 PM CST
Astronomical Twilight 6:00 AM CST 7:42 PM CST
Moon 6:07 PM CST (2/14) 7:08 AM CST (2/14)
Length of Visible Light 11h 18m
Length of Day
10h 15m
Full, 100% of the Moon is Illuminated
Feb 14
Full
Feb 14
Full
Feb 22
Last Quarter
Mar 1
New
Mar 8
First Quarter

Hourly Weather History & Observations

Time (CST) Temp. Windchill Dew Point Humidity Pressure Visibility Wind Dir Wind Speed Gust Speed Precip Events Conditions
12:15 AM -0.4 °F -16.7 °F -4.0 °F 85% 29.85 in - North 10.4 mph - N/A   Unknown
12:35 AM -0.4 °F -16.7 °F -4.0 °F 85% 29.86 in - North 10.4 mph - N/A   Unknown
12:55 AM -0.4 °F -13.4 °F -5.8 °F 78% 29.87 in - North 6.9 mph - N/A   Clear
1:15 AM -2.2 °F -18.0 °F -5.8 °F 85% 29.88 in 10.0 mi North 9.2 mph - N/A   Clear
1:35 AM -2.2 °F -18.0 °F -5.8 °F 85% 29.88 in 10.0 mi North 9.2 mph - N/A   Clear
1:55 AM -2.2 °F -16.8 °F -5.8 °F 85% 29.88 in 10.0 mi North 8.1 mph - N/A   Clear
2:15 AM -2.2 °F -16.8 °F -7.6 °F 78% 29.88 in 10.0 mi North 8.1 mph - N/A   Clear
2:35 AM -2.2 °F -15.6 °F -7.6 °F 78% 29.89 in 10.0 mi North 6.9 mph - N/A   Clear
2:55 AM -4.0 °F -19.0 °F -9.4 °F 78% 29.90 in 10.0 mi North 8.1 mph - N/A   Clear
3:15 AM -4.0 °F -19.0 °F -9.4 °F 78% 29.91 in 10.0 mi North 8.1 mph - N/A   Clear
3:35 AM -4.0 °F -17.8 °F -9.4 °F 78% 29.91 in 10.0 mi North 6.9 mph - N/A   Clear
4:15 AM -4.0 °F -12.4 °F -11.2 °F 71% 29.92 in 10.0 mi North 3.5 mph - N/A   Clear
4:35 AM -5.8 °F -14.5 °F -11.2 °F 77% 29.93 in 10.0 mi NNW 3.5 mph - N/A   Clear
4:55 AM -5.8 °F -19.9 °F -11.2 °F 77% 29.94 in 10.0 mi NW 6.9 mph - N/A   Clear
5:15 AM -5.8 °F -19.9 °F -11.2 °F 77% 29.95 in 10.0 mi NNW 6.9 mph - N/A   Clear
5:35 AM -5.8 °F -21.2 °F -11.2 °F 77% 29.96 in 10.0 mi NW 8.1 mph - N/A   Clear
5:55 AM -5.8 °F -18.4 °F - N/A% 29.96 in 10.0 mi North 5.8 mph - N/A   Scattered Clouds
6:15 AM -7.6 °F -20.6 °F -13.0 °F 77% 29.98 in 10.0 mi NNW 5.8 mph - N/A   Partly Cloudy
6:35 AM -7.6 °F -22.1 °F -13.0 °F 77% 29.99 in 10.0 mi NNW 6.9 mph - N/A   Clear
6:55 AM -7.6 °F -23.4 °F -13.0 °F 77% 30.00 in 10.0 mi NW 8.1 mph - N/A   Clear
7:15 AM -7.6 °F -22.1 °F -13.0 °F 77% 30.00 in 10.0 mi NW 6.9 mph - N/A   Clear
7:35 AM -7.6 °F -22.1 °F -13.0 °F 77% 30.01 in 10.0 mi NW 6.9 mph - N/A   Clear
7:55 AM -7.6 °F -24.6 °F -13.0 °F 77% 30.02 in 10.0 mi NW 9.2 mph - N/A   Clear
8:15 AM -7.6 °F -23.4 °F -13.0 °F 77% 30.03 in 10.0 mi NW 8.1 mph - N/A   Clear
8:35 AM -7.6 °F -24.6 °F -13.0 °F 77% 30.04 in 10.0 mi WNW 9.2 mph - N/A   Clear
8:55 AM -7.6 °F -24.6 °F -13.0 °F 77% 30.04 in 10.0 mi NW 9.2 mph - N/A   Clear
9:15 AM -5.8 °F -23.4 °F -13.0 °F 71% 30.05 in 10.0 mi NW 10.4 mph - N/A   Clear
9:35 AM -4.0 °F -20.2 °F - N/A% 30.05 in 10.0 mi WNW 9.2 mph - N/A   Clear
9:55 AM -4.0 °F -17.8 °F -11.2 °F 71% 30.05 in 10.0 mi WNW 6.9 mph - N/A   Clear
10:15 AM -2.2 °F -18.0 °F -9.4 °F 71% 30.05 in 10.0 mi West 9.2 mph - N/A   Clear
10:35 AM -0.4 °F -14.7 °F -7.6 °F 72% 30.05 in 10.0 mi West 8.1 mph - N/A   Clear
10:55 AM -0.4 °F -14.7 °F -5.8 °F 78% 30.04 in 10.0 mi WSW 8.1 mph - N/A   Clear
11:15 AM 1.4 °F -8.3 °F -4.0 °F 78% 30.04 in 10.0 mi WNW 4.6 mph - N/A   Clear
11:35 AM 1.4 °F -11.3 °F -4.0 °F 78% 30.05 in 10.0 mi NW 6.9 mph - N/A   Clear
11:55 AM 3.2 °F -6.2 °F -2.2 °F 78% 30.04 in 10.0 mi West 4.6 mph - N/A   Clear
12:15 PM 5.0 °F -2.1 °F -0.4 °F 78% 30.03 in 10.0 mi WSW 3.5 mph - N/A   Clear
12:35 PM 6.8 °F -0.1 °F -0.4 °F 72% 30.02 in 10.0 mi WNW 3.5 mph - N/A   Clear
12:55 PM 6.8 °F -0.1 °F 1.4 °F 79% 30.02 in 10.0 mi SW 3.5 mph - N/A   Clear
1:15 PM 8.6 °F 2.0 °F 1.4 °F 73% 30.00 in 10.0 mi South 3.5 mph - N/A   Clear
1:35 PM 8.6 °F -1.3 °F 3.2 °F 79% 30.00 in 10.0 mi South 5.8 mph - N/A   Clear
1:55 PM 10.4 °F -1.5 °F 5.0 °F 79% 29.98 in 10.0 mi SW 8.1 mph - N/A   Clear
2:15 PM 12.2 °F -0.2 °F 5.0 °F 73% 29.96 in 10.0 mi SW 9.2 mph - N/A   Clear
2:35 PM 12.2 °F -0.2 °F 3.2 °F 67% 29.95 in 10.0 mi SSW 9.2 mph - N/A   Clear
2:55 PM 14.0 °F 1.2 °F 6.8 °F 73% 29.93 in 10.0 mi SSW 10.4 mph - N/A   Clear
3:15 PM 12.2 °F -1.0 °F 5.0 °F 73% 29.93 in 10.0 mi SSW 10.4 mph - N/A   Clear
3:35 PM 12.2 °F -0.2 °F 5.0 °F 73% 29.92 in 10.0 mi South 9.2 mph - N/A   Clear
3:55 PM 12.2 °F -0.2 °F 6.8 °F 79% 29.92 in 10.0 mi South 9.2 mph - N/A   Clear
4:15 PM 14.0 °F -1.4 °F 6.8 °F 73% 29.91 in 10.0 mi South 15.0 mph - N/A   Unknown
4:35 PM 14.0 °F -2.5 °F 6.8 °F 73% 29.90 in 10.0 mi South 17.3 mph - N/A   Clear
4:55 PM 12.2 °F -1.8 °F 6.8 °F 79% 29.90 in 10.0 mi South 11.5 mph - N/A   Clear
5:15 PM 12.2 °F -2.5 °F 6.8 °F 79% 29.89 in 10.0 mi South 12.7 mph - N/A   Clear
5:35 PM 12.2 °F -2.5 °F 6.8 °F 79% 29.89 in 10.0 mi South 12.7 mph - N/A   Clear
5:55 PM 10.4 °F -6.0 °F 6.8 °F 85% 29.88 in 10.0 mi South 15.0 mph - N/A   Clear
6:15 PM 10.4 °F -3.3 °F 6.8 °F 85% 29.89 in 10.0 mi South 10.4 mph - N/A   Clear
6:35 PM 10.4 °F -4.1 °F 6.8 °F 85% 29.87 in 10.0 mi SSE 11.5 mph - N/A   Clear
6:55 PM 10.4 °F -4.8 °F 6.8 °F 85% 29.85 in 10.0 mi South 12.7 mph - N/A   Clear
7:15 PM 8.6 °F -5.5 °F 5.0 °F 85% 29.83 in 10.0 mi SE 10.4 mph - N/A   Clear
7:35 PM 8.6 °F -7.0 °F 5.0 °F 85% 29.83 in 10.0 mi South 12.7 mph - N/A   Clear
7:55 PM 8.6 °F -8.3 °F 5.0 °F 85% 29.82 in 10.0 mi South 15.0 mph - N/A   Clear
8:15 PM 8.6 °F -7.7 °F 5.0 °F 85% 29.81 in 10.0 mi South 13.8 mph - N/A   Clear
8:35 PM 8.6 °F -6.3 °F 5.0 °F 85% 29.79 in 10.0 mi SSE 11.5 mph - N/A   Clear
8:55 PM 8.6 °F -3.7 °F 5.0 °F 85% 29.78 in 10.0 mi SSE 8.1 mph - N/A   Clear
9:15 PM 6.8 °F -9.3 °F 5.0 °F 92% 29.77 in 10.0 mi SE 12.7 mph - N/A   Clear
9:35 PM 6.8 °F -7.8 °F 5.0 °F 92% 29.77 in 10.0 mi SSE 10.4 mph - N/A   Clear
9:55 PM 8.6 °F -7.7 °F 5.0 °F 85% 29.75 in 10.0 mi South 13.8 mph - N/A   Clear
10:15 PM 10.4 °F -3.3 °F 6.8 °F 85% 29.74 in 10.0 mi South 10.4 mph - N/A   Clear
10:35 PM 12.2 °F -4.3 °F 8.6 °F 85% 29.72 in 10.0 mi SSW 16.1 mph - N/A   Clear
10:55 PM 10.4 °F -4.1 °F 8.6 °F 92% 29.72 in 10.0 mi SSW 11.5 mph - N/A   Clear
11:15 PM 14.0 °F 0.5 °F 10.4 °F 86% 29.72 in 10.0 mi SSW 11.5 mph - N/A   Clear
11:35 PM 15.8 °F 2.1 °F 12.2 °F 86% 29.70 in 10.0 mi SSW 12.7 mph - N/A   Clear
11:55 PM 14.0 °F 1.2 °F 12.2 °F 93% 29.69 in 10.0 mi South 10.4 mph - N/A   Clear